Powrót do katalogu

DELTA 1 DEB

AktywnySSO
NORAD 26701·DEBRIS·🇺🇸 United States

Wystrzelony Jun 12, 1975 z Vandenberg Space Force Base

Loading…

Następne Przeloty (najbliższe 24 godziny)

TLE

ŚwieżeSource: Space-Track

Epoka: Sep 14, 2026, 02:49 UTC

1 26701U 75052KB  26257.11780983  .00000394  00000-0  50849-3 0  9999
2 26701  99.7469 126.2706 0259472  44.7109 105.1389 13.55467029274181

Śledź DELTA 1 DEB w czasie rzeczywistym z AllMySat

Download on the App Store